Naples, FL

6:09 PM EDT on September 25, 2016 (GMT -0400)
Naples Municipal

Weather History for KAPF - February, 2014

Change the Weather History Date:

Sunday, February 9, 2014

  Actual Average Record
Temperature  
Mean Temperature 70 °F 66 °F  
Max Temperature 78 °F 76 °F 85 °F (1959)
Min Temperature 62 °F 56 °F 32 °F (1995)
Degree Days  
Heating Degree Days 0 2  
Month to date heating degree days 0 18  
Since 1 July heating degree days 125 198  
Cooling Degree Days 5 3  
Month to date cooling degree days 90 26  
Year to date cooling degree days 181 112  
Growing Degree Days 20 (Base 50)    
Moisture  
Dew Point 64 °F    
Average Humidity 82    
Maximum Humidity 100    
Minimum Humidity 64    
Precipitation  
Precipitation 0.00 in 0.07 in 1.89 in (1967)
Month to date precipitation T 0.65  
Year to date precipitation 2.39 2.50  
Snow  
Snow 0.00 in - - ()
Month to date snowfall 0.0  
Since 1 July snowfall 0.0  
Snow Depth 0.00 in    
Sea Level Pressure  
Sea Level Pressure 30.06 in    
Wind  
Wind Speed 6 mph (North)    
Max Wind Speed 14 mph    
Max Gust Speed 17 mph    
Visibility 9 miles    
Events      
T = Trace of Precipitation, MM = Missing Value Source: NWS Daily Summary

Daily Weather History Graph

Daily Weather History Graph

Search for Another Location

Airport or City:

Trip Planner

Search our weather history database for the weather conditions in past years. The results will help you decide how hot, cold, wet, or windy it might be!

Date:

Astronomy

Feb. 09, 2014 Rise Set
Actual Time 7:06 AM EST 6:16 PM EST
Civil Twilight 6:43 AM EST 6:39 PM EST
Nautical Twilight 6:15 AM EST 7:07 PM EST
Astronomical Twilight 5:48 AM EST 7:34 PM EST
Moon 2:04 PM EST (2/9) 3:01 AM EST (2/9)
Length of Visible Light 11h 56m
Length of Day
11h 09m
Waxing Gibbous, 77% of the Moon is Illuminated
Feb 9
Waxing Gibbous
Feb 14
Full
Feb 22
Last Quarter
Mar 1
New
Mar 8
First Quarter

Hourly Weather History & Observations

Time (EST) Temp. Dew Point Humidity Pressure Visibility Wind Dir Wind Speed Gust Speed Precip Events Conditions
12:53 AM 66.0 °F 63.0 °F 90% 30.06 in 10.0 mi NE 4.6 mph - N/A   Clear
1:53 AM 64.9 °F 63.0 °F 93% 30.04 in 10.0 mi ENE 5.8 mph - N/A   Clear
2:53 AM 64.9 °F 63.0 °F 93% 30.04 in 10.0 mi NNE 4.6 mph - N/A   Clear
3:11 AM 64.4 °F 62.6 °F 94% 30.05 in 9.0 mi North 5.8 mph - N/A   Scattered Clouds
3:21 AM 64.4 °F 64.4 °F 100% 30.04 in 8.0 mi NNE 6.9 mph - N/A   Mostly Cloudy
3:53 AM 64.9 °F 64.0 °F 97% 30.04 in 5.0 mi North 8.1 mph - N/A   Overcast
4:10 AM 64.4 °F 64.4 °F 100% 30.03 in 5.0 mi NNE 5.8 mph - N/A   Overcast
4:53 AM 64.0 °F 63.0 °F 96% 30.04 in 7.0 mi NNE 8.1 mph - N/A   Overcast
5:53 AM 64.0 °F 63.0 °F 96% 30.04 in 6.0 mi ENE 6.9 mph - N/A   Overcast
6:53 AM 64.0 °F 63.0 °F 96% 30.05 in 6.0 mi East 4.6 mph - N/A   Overcast
7:53 AM 64.0 °F 64.0 °F 100% 30.06 in 4.0 mi Calm Calm - N/A   Overcast
8:24 AM 64.4 °F 64.4 °F 100% 30.08 in 7.0 mi Calm Calm - N/A   Overcast
8:53 AM 66.0 °F 64.0 °F 93% 30.09 in 8.0 mi NNW 4.6 mph - N/A   Overcast
9:53 AM 69.1 °F 64.0 °F 84% 30.10 in 10.0 mi NNE 6.9 mph - N/A   Overcast
10:38 AM 71.6 °F 64.4 °F 78% 30.10 in 10.0 mi ENE 6.9 mph - N/A   Mostly Cloudy
10:53 AM 72.0 °F 64.9 °F 78% 30.09 in 10.0 mi Variable 5.8 mph - N/A   Mostly Cloudy
11:30 AM 73.4 °F 64.4 °F 73% 30.09 in 10.0 mi NNW 3.5 mph - N/A   Mostly Cloudy
11:53 AM 73.9 °F 64.9 °F 73% 30.07 in 10.0 mi North 6.9 mph - N/A   Mostly Cloudy
12:07 PM 75.2 °F 64.4 °F 69% 30.07 in 10.0 mi North 9.2 mph - N/A   Scattered Clouds
12:37 PM 75.2 °F 64.4 °F 69% 30.06 in 10.0 mi NNW 6.9 mph - N/A   Mostly Cloudy
12:53 PM 77.0 °F 64.9 °F 66% 30.05 in 10.0 mi NNW 5.8 mph - N/A   Scattered Clouds
1:53 PM 75.0 °F 64.9 °F 71% 30.03 in 10.0 mi WNW 9.2 mph - N/A   Overcast
2:53 PM 73.9 °F 64.9 °F 73% 30.02 in 10.0 mi WNW 10.4 mph - N/A   Overcast
3:53 PM 75.9 °F 64.0 °F 67% 30.02 in 10.0 mi WNW 10.4 mph - N/A   Mostly Cloudy
4:53 PM 73.0 °F 64.9 °F 76% 30.02 in 10.0 mi NW 9.2 mph - N/A   Mostly Cloudy
5:53 PM 70.0 °F 66.0 °F 87% 30.04 in 10.0 mi NW 8.1 mph - N/A   Scattered Clouds
6:53 PM 69.1 °F 64.9 °F 87% 30.05 in 10.0 mi NW 4.6 mph - N/A   Clear
7:53 PM 69.1 °F 64.9 °F 87% 30.05 in 10.0 mi Calm Calm - N/A   Clear
8:53 PM 66.9 °F 64.0 °F 90% 30.06 in 10.0 mi Calm Calm - N/A   Clear
9:53 PM 66.9 °F 62.1 °F 84% 30.07 in 10.0 mi ENE 8.1 mph - N/A   Clear
10:53 PM 64.9 °F 60.1 °F 84% 30.08 in 10.0 mi ENE 4.6 mph - N/A   Clear
11:53 PM 63.0 °F 57.9 °F 84% 30.07 in 10.0 mi ENE 4.6 mph - N/A   Clear